sat.trackr.live / text

‹ back to catalog

UNKNOWN

NORAD 87569

UNKNOWN UNKNOWN UNKNOWN

§ Identity

Operator
Country
Launch date
Launch site
Launch vehicle
Mass (kg)
RCS (m²)

External: N2YO · Heavens-Above

§ Orbital elements

Epoch: 2026-09-18T07:28:52.581216Z

Period
113.52 min
Inclination
101.9934°
Eccentricity
0.0055882
Mean motion
12.68550166 rev/d
Perigee alt
1,344.5 km
Apogee alt
1,431.2 km
Semi-major
7,766.0 km
B*
4.9765e-5
RAAN
94.4919°
Arg perigee
64.9185°
Mean anomaly
109.8724°
Rev number
59,391

§ Raw data

UNKNOWN1 87569U          26261.31171969 -.00000038  00000+0  49765-4 0  99952 87569 101.9934  94.4919 0055882  64.9185 109.8724 12.68550166593919

JSON: /api/v1/satellites/87569 · /tle

For live sub-satellite position, see the globe view (requires WebGL).

§ Visibility from observer

Set your observer location to see the next 7 days of passes ≥ 10°. The values pass through the URL so the page stays shareable.

No JS? Fill the form by hand. The geolocation button needs JavaScript.